CZ-6A DEB, 54297

Orbit data source: Space-Track

CZ-6A DEB, 54297 is space debris in SSO originally from a launch on Fri, 11 Nov 2022 UTC launched from the Taiyaun Space Center, China (TSC). Debris objects in space refer to the collection of defunct objects orbiting the Earth. Examples of debris include non-operational satellites, rocket bodies, and fragments generated from explosions, collisions, or faulty payload assembly.

Loading next visibility...
Identifier
54297, 2022-151AQ
Orbit
SSO
Country
Flag of CNCN / PRC
Related business
Manufacturer
SAST
Mission
Spacecraft
Bus & Motor
Unknown
Mass
Unknown
Launch date (UTC)
2022-11-11 (3 years ago)
Launch vehicle
Unknown
Launch site
Taiyaun Space Center, China (TSC)
Object type
Payload
Rocket body
Debris
Shape & HBR
Unknown shape, 0.1 m
Radar Cross Section
Small (<0.1 m²)

Expand to show TLE details & history
Last TLE update: 11 hours ago

TLE from 11 hours ago
0 CZ-6A DEB
1 54297U 22151AQ  25351.59565641  .00001036  00000-0  44794-3 0  9996
2 54297  98.7275   6.5251 0026216 163.6597 196.5434 14.26385896160494
Epoch: 2025-12-17T14:17Z
TLE epoch observation values (Epoch: 2025-12-17T14:17:44.713Z)
Latitude
-0.00004°
Longitude
65.62555°
Altitude
824.816 km
Speed
7.431 km/s
True Right ascension
00h 26m 06s
True Declination
0° 00' 00"
Sunlit
Object was in daylight at epoch
Visualization orbit readout
Latitude
Unknown
Longitude
Unknown
Altitude
Unknown
Speed
Unknown
Apparent Right ascension
Unknown
Apparent Declination
Unknown
Sunlit
N/A
Visualization observer readout
Local Sidereal Time
00:27:40
Azimuth
Unknown
Elevation
Unknown
Doppler factor
Unknown
Orbital elements
Apogee altitude
819.808 km
Perigee altitude
782.167 km
Semi-major axis
7,179.125 km
Eccentricity
0.00262
Inclination
98.7275°
RAAN
6.5251°
Arg. of periapsis
163.6597°
True anomaly
196.45813°
Mean anomaly
196.5434°
Eccentric anomaly
196.50074°
Mean motion
3.56809 °/min
Orbital period
100.89 mins
BSTAR
0.00044794
Loading maneuver chart data...
Computing Atmospheric mass density...
Loading historical data...
Loading historical data...
Loading historical data...
Loading historical data...
Loading historical data...
Loading historical data...
Loading historical data...

Documentation

Showing up to 5 results
|